Location: *
(43.9900°N, 3.4811°E)
Time: 15:57:47
(UTC+00:00)

Terra - Pass Details

Date: 25 August 2019
Orbit: 701 x 703 km, 98.2° (Epoch: 23 September)

Event Time Altitude Azimuth Distance (km) Brightness Sun altitude
Exits shadow 22:32:10 27° 294° (WNW) 1,330 3.5 -32.7°
Drops below altitude 10° 22:35:06 10° 327° (NNW) 2,179 5.2 -32.9°
Sets 22:37:36 0° 338° (NNW) 3,102 6.2 -33.1°
